| time (UTC) | temp F | wind direction | speed MPH | gust MPH | rain 1hr in | rain 24hr in | rain mn in | humidity % | barometer mb |
| 20260502210015 | 91 | 145 | 7.0 | 8.0 | 0.00 | 0.00 | 0.00 | 38 | 1007.0 |
| 20260502205015 | 92 | 145 | 7.0 | 8.0 | 0.00 | 0.00 | 0.00 | 38 | 1007.0 |
| 20260502204015 | 93 | 145 | 7.0 | 8.0 | 0.00 | 0.00 | 0.00 | 38 | 1008.0 |
| 20260502203014 | 93 | 145 | 7.0 | 8.0 | 0.00 | 0.00 | 0.00 | 38 | 1008.0 |
| 20260502202014 | 94 | 145 | 7.0 | 8.0 | 0.00 | 0.00 | 0.00 | 38 | 1008.0 |
| 20260502201014 | 90 | 145 | 7.0 | 8.0 | 0.00 | 0.00 | 0.00 | 35 | 1008.0 |
| 20260502200013 | 91 | 145 | 7.0 | 8.0 | 0.00 | 0.00 | 0.00 | 35 | 1008.0 |
| 20260502195013 | 92 | 145 | 7.0 | 8.0 | 0.00 | 0.00 | 0.00 | 35 | 1008.0 |
| 20260502194013 | 89 | 145 | 7.0 | 8.0 | 0.00 | 0.00 | 0.00 | 36 | 1008.0 |
| 20260502193012 | 89 | 145 | 7.0 | 8.0 | 0.00 | 0.00 | 0.00 | 36 | 1008.0 |
| 20260502192012 | 88 | 145 | 8.0 | 8.0 | 0.00 | 0.00 | 0.00 | 40 | 1009.0 |
| 20260502191012 | 88 | 145 | 8.0 | 8.0 | 0.00 | 0.00 | 0.00 | 40 | 1009.0 |
| 20260502190011 | 102 | 145 | 8.0 | 8.0 | 0.00 | 0.00 | 0.00 | 38 | 1009.0 |
| 20260502185011 | 102 | 145 | 8.0 | 8.0 | 0.00 | 0.00 | 0.00 | 38 | 1009.0 |
| 20260502184011 | 90 | 156 | 5.0 | 7.0 | 0.00 | 0.00 | 0.00 | 42 | 1009.0 |
| 20260502183010 | 90 | 156 | 5.0 | 7.0 | 0.00 | 0.00 | 0.00 | 42 | 1009.0 |
| 20260502182010 | 91 | 156 | 5.0 | 7.0 | 0.00 | 0.00 | 0.00 | 42 | 1010.0 |
| 20260502181010 | 92 | 156 | 5.0 | 7.0 | 0.00 | 0.00 | 0.00 | 42 | 1010.0 |
| 20260502164007 | 89 | 146 | 5.0 | 7.0 | 0.00 | 0.00 | 0.00 | 47 | 1012.0 |
| 20260502163006 | 90 | 146 | 5.0 | 7.0 | 0.00 | 0.00 | 0.00 | 47 | 1012.0 |
| 20260502162006 | 84 | 136 | 4.0 | 5.0 | 0.00 | 0.00 | 0.00 | 54 | 1013.0 |
| 20260502161005 | 85 | 136 | 4.0 | 5.0 | 0.00 | 0.00 | 0.00 | 54 | 1013.0 |
| 20260502152003 | 86 | 120 | 3.0 | 4.0 | 0.00 | 0.00 | 0.00 | 62 | 1013.0 |
| 20260502151003 | 87 | 120 | 3.0 | 4.0 | 0.00 | 0.00 | 0.00 | 62 | 1013.0 |
| 20260502123003 | 74 | 43 | 1.0 | 3.0 | 0.00 | 0.00 | 0.00 | 80 | 1012.0 |
| 20260502121958 | 75 | 43 | 1.0 | 3.0 | 0.00 | 0.00 | 0.00 | 80 | 1012.0 |
| 20260502120957 | 76 | 43 | 1.0 | 3.0 | 0.00 | 0.00 | 0.00 | 80 | 1012.0 |
| 20260502114957 | 68 | 36 | 1.0 | 1.0 | 0.00 | 0.00 | 0.00 | 78 | 1012.0 |
| 20260502113956 | 69 | 36 | 1.0 | 1.0 | 0.00 | 0.00 | 0.00 | 78 | 1012.0 |
| 20260502112956 | 70 | 36 | 1.0 | 1.0 | 0.00 | 0.00 | 0.00 | 78 | 1012.0 |
| 20260502111955 | 71 | 36 | 1.0 | 1.0 | 0.00 | 0.00 | 0.00 | 78 | 1012.0 |
| 20260502110955 | 72 | 36 | 1.0 | 1.0 | 0.00 | 0.00 | 0.00 | 78 | 1012.0 |
| 20260502105955 | 73 | 36 | 2.0 | 2.0 | 0.00 | 0.00 | 0.00 | 78 | 1012.0 |
| 20260502104955 | 67 | 42 | 1.0 | 1.0 | 0.00 | 0.00 | 0.00 | 72 | 1012.0 |
| 20260502103954 | 68 | 42 | 1.0 | 1.0 | 0.00 | 0.00 | 0.00 | 72 | 1012.0 |
| 20260502102954 | 69 | 42 | 1.0 | 1.0 | 0.00 | 0.00 | 0.00 | 72 | 1011.0 |
| 20260502101954 | 70 | 42 | 1.0 | 1.0 | 0.00 | 0.00 | 0.00 | 72 | 1011.0 |
| 20260502100953 | 71 | 42 | 1.0 | 1.0 | 0.00 | 0.00 | 0.00 | 72 | 1011.0 |
| 20260502090952 | 69 | 43 | 1.0 | 1.0 | 0.00 | 0.00 | 0.00 | 71 | 1011.0 |
| 20260502070948 | 71 | 95 | 1.0 | 4.0 | 0.00 | 0.00 | 0.00 | 59 | 1012.0 |
| 20260502065947 | 72 | 95 | 1.0 | 4.0 | 0.00 | 0.00 | 0.00 | 59 | 1012.0 |
| 20260502064947 | 72 | 95 | 1.0 | 4.0 | 0.00 | 0.00 | 0.00 | 59 | 1012.0 |
| 20260502063947 | 73 | 95 | 1.0 | 4.0 | 0.00 | 0.00 | 0.00 | 59 | 1012.0 |
| 20260502062947 | 74 | 95 | 1.0 | 4.0 | 0.00 | 0.00 | 0.00 | 59 | 1012.0 |
| 20260502061946 | 75 | 95 | 1.0 | 4.0 | 0.00 | 0.00 | 0.00 | 59 | 1012.0 |
| 20260502060946 | 76 | 95 | 1.0 | 4.0 | 0.00 | 0.00 | 0.00 | 59 | 1012.0 |
| 20260502055946 | 77 | 95 | 1.0 | 4.0 | 0.00 | 0.00 | 0.00 | 59 | 1012.0 |
| 20260502054946 | 78 | 95 | 1.0 | 4.0 | 0.00 | 0.00 | 0.00 | 59 | 1012.0 |
| 20260502053945 | 79 | 95 | 1.0 | 4.0 | 0.00 | 0.00 | 0.00 | 59 | 1012.0 |
| 20260502052945 | 80 | 95 | 2.0 | 4.0 | 0.00 | 0.00 | 0.00 | 59 | 1012.0 |
| 20260502051945 | 71 | 85 | 3.0 | 7.0 | 0.00 | 0.00 | 0.00 | 57 | 1012.0 |
| 20260502050945 | 72 | 85 | 3.0 | 7.0 | 0.00 | 0.00 | 0.00 | 57 | 1012.0 |
| 20260502045944 | 73 | 85 | 3.0 | 7.0 | 0.00 | 0.00 | 0.00 | 57 | 1012.0 |
| 20260502044944 | 74 | 85 | 3.0 | 7.0 | 0.00 | 0.00 | 0.00 | 57 | 1012.0 |
| 20260502043944 | 75 | 85 | 3.0 | 7.0 | 0.00 | 0.00 | 0.00 | 57 | 1012.0 |
| 20260502042943 | 76 | 85 | 3.0 | 7.0 | 0.00 | 0.00 | 0.00 | 57 | 1012.0 |
| 20260502041943 | 76 | 85 | 3.0 | 7.0 | 0.00 | 0.00 | 0.00 | 57 | 1012.0 |
| 20260502040943 | 77 | 85 | 3.0 | 7.0 | 0.00 | 0.00 | 0.00 | 57 | 1012.0 |
| 20260502035943 | 78 | 85 | 3.0 | 7.0 | 0.00 | 0.00 | 0.00 | 57 | 1012.0 |
| 20260502034942 | 73 | 83 | 4.0 | 8.0 | 0.00 | 0.00 | 0.00 | 44 | 1012.0 |
| 20260502033942 | 74 | 83 | 4.0 | 8.0 | 0.00 | 0.00 | 0.00 | 44 | 1012.0 |
| 20260502032942 | 75 | 83 | 4.0 | 8.0 | 0.00 | 0.00 | 0.00 | 44 | 1011.0 |
| 20260502031941 | 76 | 83 | 4.0 | 8.0 | 0.00 | 0.00 | 0.00 | 44 | 1011.0 |
| 20260502030941 | 77 | 83 | 4.0 | 8.0 | 0.00 | 0.00 | 0.00 | 44 | 1011.0 |
| 20260502025941 | 78 | 83 | 4.0 | 8.0 | 0.00 | 0.00 | 0.00 | 44 | 1011.0 |
| 20260502024941 | 79 | 83 | 4.0 | 8.0 | 0.00 | 0.00 | 0.00 | 44 | 1011.0 |
| 20260502023940 | 80 | 83 | 4.0 | 8.0 | 0.00 | 0.00 | 0.00 | 44 | 1011.0 |
| 20260502022940 | 81 | 83 | 4.0 | 9.0 | 0.00 | 0.00 | 0.00 | 44 | 1010.0 |
| 20260502021940 | 75 | 89 | 7.0 | 11.0 | 0.00 | 0.00 | 0.00 | 40 | 1010.0 |
| 20260502020939 | 76 | 89 | 7.0 | 11.0 | 0.00 | 0.00 | 0.00 | 40 | 1010.0 |
| 20260502015939 | 77 | 89 | 7.0 | 11.0 | 0.00 | 0.00 | 0.00 | 40 | 1010.0 |
| 20260502014939 | 78 | 89 | 7.0 | 11.0 | 0.00 | 0.00 | 0.00 | 40 | 1010.0 |
| 20260502013939 | 79 | 89 | 7.0 | 11.0 | 0.00 | 0.00 | 0.00 | 40 | 1010.0 |
| 20260502012938 | 80 | 89 | 7.0 | 11.0 | 0.00 | 0.00 | 0.00 | 40 | 1009.0 |
| 20260502011938 | 81 | 89 | 7.0 | 11.0 | 0.00 | 0.00 | 0.00 | 40 | 1009.0 |
| 20260502010938 | 82 | 89 | 7.0 | 11.0 | 0.00 | 0.00 | 0.00 | 40 | 1009.0 |
| 20260502005938 | 83 | 89 | 7.0 | 11.0 | 0.00 | 0.00 | 0.00 | 40 | 1009.0 |
| 20260502004937 | 84 | 89 | 7.0 | 11.0 | 0.00 | 0.00 | 0.00 | 40 | 1009.0 |
| 20260502003937 | 85 | 89 | 7.0 | 11.0 | 0.00 | 0.00 | 0.00 | 40 | 1009.0 |
| 20260502002936 | 86 | 89 | 7.0 | 11.0 | 0.00 | 0.00 | 0.00 | 40 | 1008.0 |
| 20260502001936 | 79 | 111 | 8.0 | 8.0 | 0.00 | 0.00 | 0.00 | 35 | 1008.0 |
| 20260502000936 | 80 | 111 | 8.0 | 8.0 | 0.00 | 0.00 | 0.00 | 35 | 1008.0 |
| 20260501235936 | 81 | 111 | 8.0 | 8.0 | 0.00 | 0.00 | 0.00 | 35 | 1008.0 |
| 20260501234935 | 82 | 111 | 8.0 | 8.0 | 0.00 | 0.00 | 0.00 | 35 | 1008.0 |
| 20260501233935 | 83 | 111 | 8.0 | 8.0 | 0.00 | 0.00 | 0.00 | 35 | 1008.0 |
| 20260501232935 | 84 | 111 | 8.0 | 8.0 | 0.00 | 0.00 | 0.00 | 35 | 1007.0 |
| 20260501231934 | 85 | 111 | 8.0 | 8.0 | 0.00 | 0.00 | 0.00 | 35 | 1007.0 |
| 20260501230934 | 86 | 111 | 8.0 | 8.0 | 0.00 | 0.00 | 0.00 | 35 | 1007.0 |
| 20260501225934 | 87 | 111 | 8.0 | 8.0 | 0.00 | 0.00 | 0.00 | 35 | 1007.0 |
| 20260501224934 | 88 | 111 | 8.0 | 8.0 | 0.00 | 0.00 | 0.00 | 35 | 1007.0 |
| 20260501223933 | 88 | 111 | 8.0 | 8.0 | 0.00 | 0.00 | 0.00 | 35 | 1007.0 |
| 20260501222933 | 89 | 111 | 8.0 | 8.0 | 0.00 | 0.00 | 0.00 | 35 | 1006.0 |
| 20260501221933 | 90 | 111 | 8.0 | 8.0 | 0.00 | 0.00 | 0.00 | 35 | 1006.0 |
| 20260501220932 | 91 | 111 | 8.0 | 8.0 | 0.00 | 0.00 | 0.00 | 35 | 1006.0 |
| 20260501215932 | 92 | 111 | 8.0 | 8.0 | 0.00 | 0.00 | 0.00 | 35 | 1006.0 |
| 20260501214932 | 93 | 111 | 8.0 | 8.0 | 0.00 | 0.00 | 0.00 | 35 | 1006.0 |
| 20260501213931 | 94 | 111 | 8.0 | 8.0 | 0.00 | 0.00 | 0.00 | 35 | 1006.0 |
| 20260501212931 | 95 | 111 | 8.0 | 8.0 | 0.00 | 0.00 | 0.00 | 35 | 1006.0 |
| 20260501211930 | 96 | 111 | 8.0 | 8.0 | 0.00 | 0.00 | 0.00 | 35 | 1006.0 |
| 20260501210930 | 97 | 111 | 8.0 | 8.0 | 0.00 | 0.00 | 0.00 | 35 | 1006.0 |